QPF
0.00 0.00 0.00 0.00 0.00 0.00 0.01 0.01 0.00 0.00 0.00 0.00 0.02 0.03 0.04 0.01 0.00 0.01 0.00 0.00 0.03 0.02
0.01 0.00 0.00 0.00 0.01 0.01 0.02 0.02 0.06 0.03 0.06 0.06 0.02 0.00 0.00 0.00 0.02 0.04 0.00 0.05 0.06 0.02
0.04 0.03 0.00 0.00 0.01 0.01 0.03 0.07 0.20 0.37 0.34 0.21 0.08 0.02 0.00 0.00 0.07 0.05 0.07 0.08 0.02 0.05
0.00 0.00 0.00 0.00 0.00 0.00 0.02 0.22 0.60 0.73 0.44 0.28 0.26 0.24 0.15 0.07 0.14 0.12 0.11 0.05 0.04 0.00
0.00 0.00 0.00 0.00 0.02 0.05 0.04 0.19 0.61 0.34 0.21 0.29 0.47 0.42 0.24 0.14 0.09 0.05 0.02 0.04 0.03 0.00
0.00 0.00 0.00 0.00 0.00 0.02 0.03 0.06 0.06 0.04 0.01 0.05 0.09 0.16 0.22 0.16 0.03 0.01 0.00 0.00 0.01 0.00
0.00 0.00 0.00 0.00 0.00 0.00 0.01 0.00 0.01 0.00 0.01 0.01 0.00 0.04 0.06 0.03 0.00 0.00 0.00 0.00 0.00 0.00
0.00 0.00 0.00 0.00 0.00 0.00 0.03 0.01 0.01 0.00 0.00 0.04 0.01 0.00 0.00 0.00 0.01 0.00 0.00 0.00 0.00 0.00
0.00 0.01 0.00 0.00 0.00 0.02 0.00 0.00 0.00 0.00 0.00 0.00 0.00 0.00 0.00 0.00 0.00 0.00 0.00 0.00 0.00 0.00
0.01 0.01 0.03 0.01 0.00 0.00 0.00 0.00 0.00 0.00 0.00 0.00 0.00 0.00 0.00 0.00 0.00 0.00 0.00 0.00 0.00 0.01
0.00 0.00 0.07 0.09 0.03 0.00 0.01 0.01 0.00 0.00 0.00 0.00 0.00 0.00 0.00 0.00 0.00 0.00 0.00 0.00 0.00 0.01
0.04 0.05 0.04 0.13 0.12 0.06 0.03 0.00 0.00 0.00 0.00 0.00 0.00 0.00 0.00 0.00 0.00 0.00 0.00 0.00 0.00 0.00
0.04 0.11 0.10 0.14 0.09 0.02 0.02 0.00 0.00 0.00 0.00 0.00 0.00 0.00 0.00 0.00 0.00 0.00 0.00 0.00 0.00 0.00
0.02 0.04 0.09 0.08 0.03 0.01 0.02 0.00 0.02 0.00 0.00 0.00 0.00 0.00 0.00 0.00 0.00 0.00 0.00 0.00 0.00 0.00
MSLP
1015.53 1015.86 1016.09 1016.18 1016.28 1016.34 1016.55 1016.39 1016.39 1016.57 1016.62 1016.80 1016.80 1016.90 1016.99 1017.39 1017.74 1017.83 1018.04 1018.12 1018.15 1018.25
1014.89 1015.16 1015.44 1015.67 1015.69 1015.75 1015.75 1015.99 1016.38 1016.23 1016.58 1017.39 1016.69 1016.43 1016.74 1016.90 1017.02 1017.24 1017.32 1017.36 1017.30 1017.63
1014.86 1015.12 1014.81 1015.28 1015.40 1015.46 1015.48 1015.67 1016.50 1018.13 1018.77 1019.34 1019.13 1017.34 1016.26 1016.42 1016.59 1016.77 1016.78 1016.83 1016.92 1017.07
1014.34 1014.47 1014.37 1014.72 1014.81 1014.86 1015.06 1015.59 1016.62 1017.22 1016.74 1017.73 1017.63 1017.88 1016.64 1016.13 1016.06 1016.34 1016.17 1016.29 1016.28 1016.10
1013.88 1013.86 1014.07 1014.29 1014.31 1014.38 1014.97 1014.99 1015.63 1016.19 1015.62 1015.39 1017.01 1017.12 1016.22 1015.97 1015.53 1015.44 1015.51 1015.43 1015.59 1015.43
1013.44 1013.45 1013.45 1013.70 1013.88 1014.22 1014.41 1014.59 1015.03 1015.39 1015.60 1016.14 1016.14 1015.58 1015.30 1015.13 1014.73 1014.35 1014.24 1014.40 1014.54 1014.43
1013.04 1012.85 1012.91 1013.20 1013.45 1013.73 1014.03 1014.18 1014.61 1014.99 1014.90 1015.15 1015.05 1014.65 1014.06 1013.76 1013.76 1013.66 1013.71 1013.91 1014.24 1014.03
1012.30 1012.13 1012.44 1012.87 1013.15 1013.26 1013.72 1013.92 1014.02 1014.38 1014.36 1014.34 1014.15 1014.05 1014.17 1014.26 1013.79 1013.61 1013.77 1013.71 1013.71 1013.73
1011.95 1012.29 1012.49 1012.56 1012.88 1013.28 1013.44 1013.91 1014.38 1014.20 1014.00 1013.96 1013.95 1013.85 1013.53 1013.40 1013.60 1013.41 1013.71 1013.57 1013.58 1013.23
1012.26 1012.41 1012.37 1012.28 1012.34 1012.75 1013.19 1013.49 1013.87 1013.97 1013.76 1013.49 1013.30 1013.24 1013.18 1013.23 1013.38 1013.61 1013.60 1013.67 1013.64 1013.74
1012.21 1012.22 1012.18 1012.38 1012.41 1012.63 1012.98 1013.49 1013.75 1013.67 1013.43 1013.43 1013.12 1013.02 1012.92 1013.08 1013.38 1013.50 1013.25 1013.04 1013.17 1013.28
1012.19 1012.38 1012.34 1012.54 1012.81 1012.82 1013.02 1013.13 1013.39 1013.18 1013.21 1013.28 1012.85 1012.68 1012.54 1012.97 1013.19 1013.06 1012.84 1012.52 1012.71 1013.01
1012.83 1013.04 1012.89 1012.81 1012.21 1012.64 1012.55 1012.56 1012.63 1012.73 1012.65 1012.62 1012.55 1012.23 1012.16 1012.50 1012.87 1012.74 1012.56 1012.10 1011.94 1011.95
1012.98 1012.97 1013.07 1013.15 1012.84 1012.74 1012.47 1012.47 1012.39 1012.30 1012.14 1012.01 1011.88 1011.73 1011.63 1011.67 1012.24 1011.89 1011.80 1011.75 1011.47 1011.31
Thickness
5819 5815 5812 5809 5807 5806 5801 5800 5799 5793 5789 5786 5786 5784 5784 5782 5781 5779 5776 5776 5777 5775
5820 5817 5812 5810 5810 5807 5804 5800 5795 5790 5783 5771 5775 5779 5781 5780 5781 5779 5777 5777 5780 5778
5814 5813 5815 5809 5806 5804 5803 5799 5788 5767 5760 5752 5751 5759 5775 5776 5779 5776 5776 5777 5778 5776
5816 5813 5814 5811 5808 5805 5800 5792 5779 5771 5756 5743 5744 5751 5760 5769 5774 5771 5773 5775 5777 5779
5816 5815 5812 5807 5806 5804 5795 5792 5783 5773 5771 5767 5750 5747 5752 5759 5769 5773 5773 5776 5776 5778
5814 5813 5813 5809 5806 5801 5797 5791 5786 5778 5770 5759 5757 5764 5766 5764 5773 5780 5783 5781 5779 5780
5811 5813 5812 5808 5805 5801 5795 5790 5785 5779 5775 5771 5766 5771 5775 5776 5781 5783 5780 5779 5776 5777
5813 5815 5810 5804 5800 5801 5792 5787 5784 5780 5777 5776 5775 5777 5774 5771 5775 5777 5773 5773 5772 5773
5808 5803 5801 5801 5796 5790 5788 5782 5775 5775 5775 5775 5775 5774 5774 5776 5774 5776 5770 5770 5769 5773
5799 5796 5794 5795 5793 5786 5781 5779 5775 5772 5772 5772 5774 5774 5774 5772 5770 5766 5765 5764 5763 5760
5791 5788 5787 5783 5782 5780 5777 5772 5768 5769 5769 5768 5769 5770 5770 5768 5765 5762 5762 5762 5760 5757
5784 5778 5777 5771 5769 5770 5768 5767 5764 5764 5763 5762 5765 5766 5767 5762 5758 5758 5759 5760 5757 5753
5769 5765 5764 5763 5766 5763 5762 5761 5761 5759 5759 5759 5760 5762 5761 5758 5754 5754 5755 5757 5758 5757
5758 5757 5755 5751 5754 5753 5753 5752 5751 5752 5753 5755 5757 5758 5758 5756 5752 5754 5754 5752 5755 5757